Location: Observatoire
(46.1952°N, 5.3391°E)
Time: 01:42:49
(UTC+01:00)

Explorer 7 - Pass Details

Date: 21 February 2026
Orbit: 430 x 541 km, 50.2° (Epoch: 10 March)

Event Time Altitude Azimuth Distance (km) Brightness Sun altitude
Rises 14:32:24 0° 231° (SW) 2,398 11.1 29.1°
Reaches altitude 10° 14:34:31 10° 226° (SW) 1,543 10.5 28.9°
Maximum altitude 14:37:54 53° 149° (SSE) 553 7.6 28.6°
Drops below altitude 10° 14:41:24 10° 72° (ENE) 1,597 8.9 28.3°
Sets 14:43:37 0° 68° (ENE) 2,494 9.7 28.1°
